Dewpoint
54 54 54 54 55 55 55 54 55 55 55 55 55 56 56 56 57 57 57 58 58 58 58 59 59 60 60 61 61 61 60 51 49 40 31 30 51 61 65 62 64 64 63 39 31 25 23 23 22 23 32 32 34 31 33 33 37 30 25 25 20 18 17 20 18 20 19 18 18 20 18 17 17 19 21 20 22 24 26 31 35 48 52 53 55 52 56 59
55 54 54 54 54 54 54 54 55 55 55 55 55 55 56 56 56 56 57 57 57 57 58 58 59 60 60 60 61 61 54 49 45 37 28 53 64 64 64 64 63 64 57 34 27 25 22 21 23 29 31 30 38 30 33 30 34 27 24 25 20 24 19 23 20 20 19 18 19 20 20 17 17 19 20 19 19 23 25 26 33 46 48 53 55 55 58 59
55 54 54 54 54 54 54 54 54 55 54 55 55 55 55 55 56 56 56 57 57 57 58 59 59 60 60 61 61 59 53 43 37 33 36 62 62 64 63 65 64 64 42 39 34 25 21 21 25 25 28 25 28 30 30 28 28 30 22 15 20 27 22 21 21 20 20 20 19 19 19 17 17 19 21 19 18 21 21 24 33 39 43 51 54 55 58 59
55 55 54 53 54 54 54 54 54 54 54 54 54 54 55 55 55 56 56 56 57 57 58 59 59 60 60 60 60 57 42 33 27 31 46 61 61 64 65 64 65 60 49 46 37 35 25 21 22 24 27 24 26 29 25 28 23 26 25 19 20 25 19 19 22 21 22 20 19 18 16 15 17 18 17 16 18 19 19 23 29 30 45 52 54 55 57 58
55 55 54 53 53 53 53 53 53 53 53 53 54 54 54 54 55 55 56 56 56 57 58 58 59 60 60 60 59 49 31 12 17 41 48 62 61 62 64 64 64 52 50 47 31 27 26 18 20 22 26 20 26 24 22 25 24 24 21 26 24 24 19 19 22 26 21 19 18 16 16 15 19 18 16 18 17 16 17 18 25 29 48 54 55 56 57 57
55 55 54 53 53 53 53 53 53 53 53 53 53 54 54 54 55 55 55 56 56 57 58 58 59 59 60 59 53 44 22 5 24 47 58 63 61 63 63 64 63 41 34 29 28 24 19 18 18 18 13 17 21 21 20 22 23 17 19 20 23 22 20 21 24 25 17 17 16 16 17 18 17 19 17 16 14 14 17 18 20 26 53 55 56 57 56 57
56 54 54 53 53 53 53 53 53 53 53 53 53 53 54 54 54 55 55 55 56 57 58 58 59 59 59 58 50 33 26 18 46 47 62 62 62 64 63 64 56 37 29 28 27 23 24 17 17 21 15 17 16 20 19 21 19 22 18 19 21 24 21 24 22 23 18 16 16 16 19 18 18 16 18 14 14 13 16 23 21 34 54 56 56 56 57 57
56 55 55 55 54 53 53 53 52 52 53 52 53 53 54 54 54 54 55 55 56 57 58 58 59 59 59 49 36 33 31 27 38 49 58 62 50 60 56 50 42 38 26 26 26 22 19 13 13 20 13 10 15 16 19 18 18 19 18 22 21 23 23 24 23 22 21 21 23 20 17 17 18 18 20 17 16 16 18 28 32 53 55 55 55 56 56 56
56 55 54 54 54 53 52 52 52 52 52 53 53 53 53 54 54 54 55 55 56 57 57 58 58 59 59 43 33 21 20 34 47 50 54 47 44 47 44 38 40 31 31 32 32 26 20 20 16 14 10 11 15 17 18 18 17 17 18 22 23 22 23 23 22 22 22 22 21 19 19 20 21 21 20 20 20 21 28 35 47 53 54 54 55 56 56 56
55 55 54 53 53 53 52 52 52 52 52 52 52 53 53 53 54 54 55 55 56 57 57 58 59 59 49 34 25 8 20 47 49 45 47 42 41 42 43 42 34 32 30 33 26 22 24 21 17 20 16 17 19 18 20 18 16 18 22 22 22 23 23 23 21 22 23 23 22 19 19 20 22 19 15 17 19 29 29 35 45 52 53 54 54 55 56 56
55 54 54 53 53 53 52 52 52 52 52 52 52 52 53 53 54 54 54 55 56 56 57 58 59 56 46 23 15 9 40 48 48 45 43 42 39 37 40 41 36 35 34 36 29 24 25 24 32 26 23 14 21 19 18 16 20 23 23 22 21 22 25 23 22 22 22 19 20 19 19 21 21 21 16 17 22 25 26 30 42 47 51 53 53 54 55 55
55 54 54 53 53 52 51 51 52 51 52 52 52 52 52 53 53 54 54 55 55 57 57 57 58 53 34 24 12 15 41 47 47 43 45 41 40 41 44 39 38 39 32 30 34 40 33 32 22 15 12 22 18 22 22 24 23 23 20 16 20 21 21 21 21 22 23 22 23 21 18 16 21 19 21 22 23 24 26 28 32 40 45 49 51 53 53 55
55 54 54 53 52 51 51 51 51 51 51 52 52 52 53 53 53 54 55 55 56 56 57 58 56 55 33 18 26 35 47 49 47 43 44 45 44 43 45 44 42 38 33 30 31 39 39 30 22 19 23 18 18 13 21 24 23 21 21 19 16 19 16 20 24 23 22 22 25 17 6 9 11 18 21 21 19 22 22 25 28 30 31 36 45 50 52 53
55 54 53 53 52 51 51 51 51 51 51 52 52 53 53 53 53 54 55 55 56 56 57 57 52 48 18 10 36 46 47 51 45 40 42 44 38 41 40 44 44 40 42 37 38 40 40 32 24 22 24 18 18 29 21 20 20 17 18 22 20 12 12 17 23 23 20 23 24 8 9 7 8 10 13 17 20 21 21 21 23 26 28 29 32 40 48 51
55 55 54 53 52 51 51 51 51 51 51 52 52 52 53 54 54 55 55 55 56 57 59 57 52 31 21 29 40 44 57 44 40 41 45 41 36 37 34 36 34 35 36 33 36 41 35 32 25 22 21 25 23 20 19 18 21 17 11 13 21 9 13 20 25 21 18 21 19 14 15 11 10 12 16 23 26 21 20 20 21 22 24 25 26 29 34 40
55 54 53 53 52 51 51 51 51 51 52 52 53 53 55 55 56 56 56 56 57 56 56 52 50 28 24 21 45 52 41 35 35 42 47 46 40 36 36 36 39 34 32 32 37 32 31 28 24 24 23 20 18 18 18 19 18 22 12 14 16 19 16 18 24 27 26 23 23 13 11 14 17 20 19 22 23 22 20 20 21 21 22 23 23 24 27 30
54 54 53 52 52 51 50 51 51 52 53 53 53 54 55 55 56 57 57 57 55 56 54 43 51 39 12 24 36 37 31 37 45 43 42 43 42 38 35 34 30 31 32 33 33 32 29 27 28 23 24 18 18 16 14 12 16 16 21 14 22 16 15 14 20 24 26 22 20 22 17 15 16 17 18 21 24 23 22 21 21 21 22 22 23 23 23 25
54 53 52 52 51 51 51 51 53 54 54 54 55 55 53 56 57 57 56 55 54 53 52 51 40 22 15 28 30 31 40 40 42 41 42 42 39 34 32 30 31 30 30 27 26 25 29 24 26 21 25 21 16 13 13 7 14 17 18 15 14 17 17 14 21 21 23 23 20 21 21 20 20 20 21 22 23 23 22 22 22 22 21 22 23 23 23 23
53 52 50 50 50 51 51 52 53 53 53 54 55 56 56 57 52 52 49 44 26 24 26 27 19 17 20 18 34 43 43 42 41 39 36 40 41 37 37 34 32 27 27 23 23 26 30 28 28 22 19 19 15 9 11 19 18 18 20 17 19 16 16 17 20 22 24 22 22 21 20 20 20 21 21 21 22 22 22 22 23 23 23 23 22 23 23 24
53 51 51 53 51 51 52 53 54 54 54 54 54 52 45 38 39 38 40 39 28 20 23 27 22 27 32 35 40 42 44 40 32 35 41 42 37 34 31 31 35 29 24 23 30 28 33 22 19 18 20 19 18 13 20 21 19 22 25 22 18 17 20 22 24 25 25 21 21 22 22 21 21 21 22 22 22 21 20 20 21 21 22 23 23 23 24 24
53 53 54 54 54 54 54 54 54 54 56 53 52 41 31 33 27 26 35 35 36 38 30 28 30 33 36 40 42 36 29 30 36 37 41 45 35 29 28 28 27 27 29 31 29 29 27 20 22 20 18 19 20 22 21 22 23 19 21 20 19 20 18 21 22 25 26 19 18 22 22 21 20 20 20 20 19 18 18 18 18 19 20 21 22 23 24 24
53 52 54 53 54 53 53 54 54 55 55 52 51 45 37 33 30 32 25 17 26 36 36 33 37 37 38 39 40 39 35 30 32 35 41 39 33 24 26 26 25 24 29 30 28 25 23 19 18 21 23 21 21 21 21 21 23 25 19 22 20 19 23 22 23 23 25 21 19 20 22 21 21 21 21 20 19 19 18 18 17 17 17 19 20 21 22 24
54 54 54 53 53 53 55 56 56 55 51 49 47 45 43 43 44 46 27 22 24 33 31 34 35 37 36 37 37 40 26 26 26 33 37 38 31 28 28 24 24 27 28 26 24 25 21 24 25 26 24 21 21 22 22 22 23 21 18 17 17 22 20 20 20 23 23 21 21 22 22 21 20 20 21 22 22 21 23 22 21 22 19 19 18 19 21 22
56 56 56 57 56 56 56 56 56 54 49 46 45 42 44 49 48 47 30 21 22 28 32 30 36 37 36 34 38 29 23 24 27 27 36 33 28 33 27 25 26 26 25 25 25 21 20 23 27 28 23 21 20 21 20 19 19 22 24 23 23 24 24 19 19 23 20 21 25 19 15 12 17 18 18 16 16 15 22 13 12 21 28 26 29 28 29 25
57 57 57 57 57 57 57 56 53 51 50 45 42 46 48 49 49 47 22 17 19 27 35 33 38 37 36 43 41 30 30 35 38 36 39 32 31 29 26 29 26 24 26 26 25 23 21 23 26 25 26 24 21 20 22 23 19 21 23 24 20 22 24 25 22 18 18 15 19 16 9 17 19 17 18 19 9 10 10 13 12 13 15 20 21 23 26 29
57 57 57 57 57 57 57 51 49 49 48 45 44 45 47 46 45 40 22 21 14 21 28 27 34 24 39 35 40 36 28 24 31 38 43 34 37 29 28 25 25 22 27 25 23 26 23 28 26 25 25 25 24 21 24 22 21 19 17 25 21 23 25 24 21 19 14 6 13 19 5 11 14 13 7 7 13 13 12 12 12 10 10 12 17 21 23 25
55 57 57 57 57 57 52 47 49 46 42 41 46 46 45 48 47 38 16 14 10 24 22 29 28 27 35 33 37 22 16 21 38 35 35 39 32 33 26 26 25 26 28 27 27 24 28 27 26 27 24 25 23 20 25 21 21 19 21 26 26 24 24 23 22 20 19 22 23 24 14 8 12 11 14 14 12 9 7 6 8 9 11 16 21 26 23 25
54 56 57 57 57 56 53 51 47 44 41 46 48 47 47 47 42 29 23 6 7 24 22 21 24 35 35 34 30 17 23 29 28 31 37 38 32 28 27 26 23 26 27 26 20 26 26 27 27 25 26 24 23 24 26 23 20 19 26 27 25 23 25 25 24 24 25 18 17 20 24 9 14 16 18 15 8 7 6 7 10 11 16 25 33 35 33 27
53 55 56 57 57 57 55 52 49 45 47 48 48 47 47 39 30 17 17 6 21 21 30 18 33 34 31 30 27 30 31 33 26 31 38 35 36 28 25 27 28 29 29 26 21 27 30 28 28 28 27 23 25 29 28 28 27 29 29 30 28 27 26 25 23 22 18 11 14 15 15 4 11 18 16 13 10 9 9 8 10 13 16 25 33 35 36 36
51 53 56 57 56 56 54 52 50 50 50 49 48 46 41 29 16 17 3 4 22 16 26 27 26 27 30 27 26 27 29 32 35 34 32 30 32 31 29 29 29 28 29 30 31 30 31 35 32 26 24 25 30 31 31 31 29 32 29 26 24 22 24 23 21 14 10 3 15 19 21 9 6 15 14 8 12 5 8 12 13 16 22 25 30 34 36 36
50 52 54 56 54 54 54 50 50 50 49 50 48 42 34 26 18 10 3 13 29 25 23 24 25 30 28 24 24 26 32 33 32 32 30 31 28 28 28 26 29 28 28 29 28 29 28 28 29 30 34 32 32 30 30 31 29 28 24 21 20 18 19 18 15 18 4 5 12 16 20 10 5 12 16 14 13 12 12 13 14 15 18 25 29 32 35 36
48 51 53 53 54 54 52 50 51 49 48 48 46 38 22 15 17 8 6 18 15 20 23 22 24 29 27 26 29 29 31 31 32 29 28 29 28 25 26 24 26 23 21 24 24 27 26 27 28 30 35 30 29 31 30 31 28 23 19 17 15 7 11 8 8 4 6 6 17 20 22 14 13 11 10 11 12 15 16 14 15 16 16 25 30 32 35 36
48 51 51 52 54 54 52 52 51 50 49 47 41 29 20 18 9 12 17 18 14 24 21 27 25 27 26 25 26 30 31 28 31 29 31 30 27 28 29 26 29 26 21 24 27 24 26 28 29 29 30 32 29 24 26 26 26 22 19 15 9 -1 2 -4 -2 1 4 10 16 19 21 14 15 13 17 15 14 16 17 16 18 18 19 25 29 32 35 36
48 51 49 51 52 53 52 51 52 52 48 45 32 26 21 13 13 34 19 19 22 28 28 27 26 24 23 22 27 30 24 24 29 28 29 29 27 26 26 26 25 24 25 24 25 25 18 19 25 29 27 30 28 26 27 26 26 20 22 16 15 9 4 -5 -3 -6 3 12 14 18 7 13 3 13 17 18 19 22 22 21 22 24 25 27 29 32 30 29
49 50 50 51 53 54 53 51 51 51 46 40 28 24 17 13 18 16 16 23 27 27 26 27 25 25 23 23 25 27 28 26 30 29 29 27 26 26 25 24 27 27 26 22 24 21 21 22 23 29 29 30 29 30 29 28 26 25 23 18 9 7 15 -5 7 4 4 5 5 12 11 17 7 9 17 18 20 21 22 19 16 13 15 26 26 26 27 29
49 47 48 49 50 52 53 51 52 49 45 37 24 19 17 17 14 21 17 28 28 25 24 24 26 23 23 23 25 28 27 30 29 29 28 28 26 25 27 26 26 26 23 21 24 20 20 17 26 30 30 29 29 26 26 25 17 23 21 16 22 21 19 12 10 12 8 7 9 9 17 19 18 8 11 15 12 10 11 13 13 14 18 21 22 26 27 29
46 48 46 47 49 52 53 52 51 48 44 35 23 17 18 21 27 25 39 27 26 25 25 21 23 21 21 19 24 25 25 31 29 27 25 28 25 26 26 26 28 25 23 24 24 26 20 21 26 27 27 29 31 29 29 29 25 24 18 22 25 24 21 11 3 5 0 2 8 10 9 12 6 11 17 10 11 9 10 13 17 19 21 21 23 25 26 28
44 45 45 46 48 53 53 52 50 48 43 35 24 25 30 26 33 36 36 28 27 27 24 21 23 24 20 21 22 23 25 26 27 26 25 25 23 28 26 25 26 25 23 22 19 23 23 16 21 29 28 30 30 29 27 29 29 25 24 26 19 13 10 15 10 -1 2 -1 5 10 13 13 12 10 12 7 8 8 11 16 17 18 19 21 23 26 28 30
43 42 41 46 51 53 52 52 50 46 40 33 27 25 33 29 33 33 36 34 31 25 22 24 23 23 24 20 22 23 26 20 27 25 23 25 20 24 25 26 26 26 24 20 14 20 22 16 17 27 29 29 28 27 24 26 28 29 25 22 27 21 18 9 11 10 11 -0 -6 9 4 6 16 14 11 6 9 11 13 17 17 18 20 20 22 25 27 29
37 37 39 46 51 52 52 51 47 44 38 29 28 25 32 31 33 35 36 34 32 23 24 24 28 23 25 23 24 21 25 24 26 26 23 24 22 24 25 26 23 27 25 19 20 28 20 15 9 24 28 27 26 28 24 27 26 24 23 21 24 21 22 21 14 12 7 -1 -1 -2 4 10 14 16 12 7 7 11 16 19 21 21 21 21 23 24 26 29
39 36 34 47 51 52 51 48 43 39 35 35 34 31 34 32 36 36 37 37 36 36 32 29 29 22 26 25 23 24 25 25 26 25 23 23 21 16 24 25 27 24 25 24 22 23 20 13 14 27 26 25 26 28 27 28 26 24 22 21 23 21 15 9 15 17 7 4 3 -3 6 8 15 15 12 9 8 12 20 21 22 21 21 22 25 25 25 29
32 29 34 47 49 51 48 40 40 40 37 33 32 34 34 39 34 35 36 37 36 34 36 34 33 28 28 24 25 25 25 24 26 25 24 22 24 24 27 26 25 26 24 22 19 26 24 23 26 21 27 26 27 28 30 29 28 27 25 23 25 22 20 11 7 14 12 15 13 11 2 14 19 14 12 12 10 12 20 23 22 23 22 23 25 27 26 30
30 33 43 45 49 48 44 37 39 38 35 36 38 35 37 36 35 35 35 36 34 35 33 32 33 30 30 29 29 26 26 24 26 25 25 24 25 21 27 27 26 25 24 23 23 24 30 18 17 19 22 24 26 28 29 28 28 27 26 26 25 22 21 18 17 18 18 13 11 8 6 16 18 22 18 21 20 19 22 22 22 22 24 26 27 27 28 29
32 35 42 45 48 46 41 32 32 34 36 39 37 36 37 37 36 35 34 36 35 35 34 34 34 33 32 33 29 25 28 19 25 25 23 26 22 30 32 31 24 25 23 23 21 28 14 20 18 10 12 20 21 25 26 27 27 25 25 26 26 25 23 20 16 13 11 17 18 15 12 14 22 24 21 21 21 21 21 22 24 25 25 27 27 28 29 30
31 33 36 38 43 45 38 37 36 34 35 36 37 35 35 35 38 37 35 35 37 36 34 34 34 34 33 35 34 34 32 24 23 28 27 27 25 32 33 31 26 25 26 31 33 28 20 22 19 15 13 13 13 18 20 24 27 26 26 26 27 26 24 21 16 14 13 16 17 12 13 16 17 20 19 20 21 20 22 23 25 26 26 27 29 30 30 30
28 26 29 33 37 41 41 41 39 37 36 36 35 36 36 34 36 39 38 36 38 37 34 34 35 34 33 33 32 31 29 34 29 27 29 28 28 31 35 32 29 28 33 36 33 25 18 24 20 19 16 13 15 17 24 29 25 25 25 27 26 27 25 25 23 17 17 18 16 18 17 17 16 18 19 19 22 20 22 24 24 26 28 29 30 30 30 30
30 24 29 29 33 35 36 39 37 37 36 38 33 37 35 35 36 38 39 34 38 37 36 35 34 31 31 31 31 31 33 31 32 30 28 29 29 31 33 34 33 36 37 33 32 27 23 22 23 21 20 18 18 22 23 28 26 26 25 25 27 26 26 25 23 21 22 15 18 21 21 18 18 19 21 21 22 23 25 25 25 27 28 29 29 29 32 31
25 26 29 30 28 29 33 34 37 36 36 38 35 37 36 35 36 35 39 39 39 38 35 35 35 34 34 33 31 28 31 31 30 29 31 31 32 32 32 34 31 35 34 31 33 25 25 20 23 22 20 24 24 24 26 26 25 25 26 26 26 27 26 25 25 25 24 21 18 20 22 21 19 20 20 20 21 20 23 25 26 27 28 29 29 30 31 31
29 29 30 31 25 27 32 35 37 36 35 37 35 36 35 35 35 37 37 37 38 38 36 32 33 35 33 34 32 29 30 29 28 30 29 30 31 30 31 31 32 33 33 32 31 31 25 21 27 23 22 25 26 27 27 26 25 25 25 26 27 27 26 26 26 26 25 24 24 23 23 22 23 23 21 22 25 26 27 29 31 30 30 30 30 30 31 31
27 27 27 29 28 27 29 34 37 37 34 36 33 34 35 35 35 37 37 37 34 36 37 35 33 35 35 34 33 31 32 31 30 29 30 32 29 30 30 31 31 32 33 31 32 33 25 24 31 27 23 23 26 28 27 27 27 25 26 26 27 27 27 27 26 26 26 26 26 26 26 26 27 28 28 30 30 31 31 30 30 31 31 30 30 31 32 32
30 30 31 28 25 26 30 31 34 35 34 36 34 33 33 34 35 36 36 38 36 35 37 36 36 35 35 35 35 34 35 34 34 34 35 35 32 34 32 31 35 31 31 31 32 33 31 25 29 27 22 20 26 27 27 27 26 25 25 27 27 27 26 27 26 27 26 25 25 25 25 25 26 30 31 31 31 31 31 31 31 32 31 31 31 31 32 33
33 32 32 29 20 30 26 27 29 34 31 35 34 33 33 33 33 36 34 35 37 39 38 38 37 36 35 36 35 36 37 37 37 39 38 38 37 37 36 38 35 33 32 32 33 32 32 31 29 27 23 21 27 27 26 25 25 25 27 29 29 28 28 28 28 28 28 27 26 25 25 26 28 30 29 30 30 30 31 31 32 32 32 31 31 32 32 32